D3121 Weather Reports


Display with metric or nautical units.
time (UTC)temp
F
wind
direction
speed
MPH
gust
MPH
rain 1hr
in
rain 24hr
in
rain mn
in
humidity
%
barometer
mb
20260902144416 63 158 9.0 11.0 0.00 0.02 0.01 88 1022.4
20260902143417 63 158 10.0 11.0 0.00 0.02 0.01 88 1022.3
20260902142416 63 158 9.0 11.0 0.00 0.02 0.01 90 1022.5
20260902141416 63 158 9.0 12.0 0.00 0.02 0.01 90 1022.3
20260902140416 62 158 8.0 11.0 0.00 0.02 0.01 89 1022.2
20260902135416 62 158 8.0 10.0 0.00 0.02 0.01 89 1022.1
20260902134416 62 158 7.0 9.0 0.00 0.02 0.01 89 1021.9
20260902133416 62 180 7.0 9.0 0.00 0.03 0.01 90 1021.8
20260902132416 62 158 7.0 9.0 0.00 0.03 0.01 90 1021.9
20260902131416 61 135 7.0 12.0 0.00 0.03 0.01 91 1021.6
20260902130416 61 135 7.0 8.0 0.00 0.03 0.01 91 1021.7
20260902125416 61 158 8.0 11.0 0.00 0.04 0.01 91 1021.7
20260902124416 61 158 6.0 8.0 0.00 0.05 0.01 91 1021.9
20260902123436 61 158 5.0 6.0 0.00 0.06 0.01 91 1021.9
20260902122416 61 158 3.0 5.0 0.00 0.07 0.01 92 1021.9
20260902121416 61 180 4.0 5.0 0.00 0.10 0.01 91 1022.0
20260902120416 61 158 4.0 5.0 0.00 0.12 0.01 92 1021.9
20260902115416 61 158 6.0 8.0 0.00 0.13 0.01 92 1021.9
20260902114416 61 158 4.0 5.0 0.00 0.14 0.01 92 1021.9
20260902113416 61 158 4.0 8.0 0.00 0.15 0.01 93 1022.0
20260902112416 61 158 3.0 6.0 0.00 0.17 0.01 95 1022.1
20260902111416 61 158 3.0 5.0 0.00 0.18 0.01 95 1022.1
20260902110416 61 135 4.0 5.0 0.00 0.20 0.01 95 1022.1
20260902105416 61 158 6.0 7.0 0.00 0.21 0.01 94 1021.7
20260902104416 61 135 5.0 6.0 0.00 0.21 0.01 94 1021.7
20260902103416 61 135 6.0 7.0 0.00 0.21 0.01 94 1021.6
20260902102417 61 135 5.0 7.0 0.00 0.21 0.01 94 1021.6
20260902101416 61 135 5.0 6.0 0.00 0.21 0.01 94 1021.5
20260902100416 61 135 2.0 4.0 0.00 0.21 0.01 94 1021.4
20260902095416 61 113 3.0 5.0 0.00 0.21 0.01 94 1021.4
20260902094416 61 135 7.0 8.0 0.00 0.21 0.01 93 1021.3
20260902093416 61 158 7.0 9.0 0.00 0.21 0.01 94 1021.2
20260902092417 61 158 7.0 8.0 0.00 0.21 0.01 95 1021.1
20260902091416 61 135 7.0 9.0 0.00 0.21 0.01 95 1021.0
20260902090416 61 135 5.0 6.0 0.00 0.21 0.01 94 1021.1
20260902085456 61 158 5.0 6.0 0.00 0.21 0.01 93 1021.1
20260902084416 61 158 5.0 7.0 0.00 0.21 0.01 93 1021.1
20260902083436 61 158 7.0 8.0 0.00 0.21 0.01 93 1021.0
20260902082416 61 0.0 0.0 0.00 0.21 0.01 94 1021.1
20260902081416 61 158 5.0 7.0 0.00 0.21 0.01 93 1021.0
20260902080436 62 135 7.0 8.0 0.01 0.21 0.01 92 1021.0
20260902075416 62 135 6.0 6.0 0.01 0.21 0.01 93 1021.3
20260902074416 62 113 6.0 7.0 0.01 0.21 0.01 92 1021.2
20260902073416 62 135 6.0 8.0 0.01 0.21 0.01 92 1021.3
20260902072416 62 158 6.0 7.0 0.01 0.21 0.01 92 1021.2
20260902071416 62 158 5.0 6.0 0.01 0.21 0.01 92 1021.2
20260902070416 62 158 5.0 7.0 0.00 0.20 0.00 92 1021.2
20260902065416 62 158 6.0 8.0 0.00 0.20 0.00 94 1021.2
20260902064436 62 158 4.0 5.0 0.00 0.20 0.00 94 1021.0
20260902063416 62 158 6.0 7.0 0.00 0.20 0.00 94 1020.8
20260902062416 62 158 5.0 7.0 0.00 0.20 0.00 95 1020.8
20260902061416 62 158 6.0 7.0 0.00 0.20 0.00 95 1020.7
20260902060416 62 135 8.0 9.0 0.00 0.20 0.00 95 1020.6
20260902055416 62 135 7.0 8.0 0.00 0.20 0.00 95 1020.6
20260902054416 62 135 7.0 9.0 0.00 0.20 0.00 95 1020.5
20260902053416 62 135 7.0 8.0 0.00 0.20 0.00 94 1020.5
20260902052416 62 135 5.0 6.0 0.00 0.20 0.00 95 1020.3
20260902051416 62 90 1.0 2.0 0.00 0.20 0.00 95 1020.3
20260902050436 62 135 3.0 6.0 0.00 0.20 0.00 95 1020.2
20260902045416 62 113 4.0 5.0 0.00 0.20 0.00 95 1020.2
20260902044416 62 135 3.0 5.0 0.00 0.20 0.00 95 1020.1
20260902043458 62 113 3.0 4.0 0.01 0.20 0.00 95 1019.9
20260902042416 62 135 1.0 2.0 0.01 0.20 0.00 95 1019.8
20260902041436 62 113 1.0 2.0 0.01 0.20 0.00 95 1019.6
20260902040416 62 0.0 2.0 0.01 0.20 0.00 94 1019.5
20260902035417 62 0.0 1.0 0.01 0.20 0.20 95 1019.5
20260902034417 62 135 4.0 6.0 0.01 0.20 0.20 95 1019.4
20260902033417 62 0.0 2.0 0.00 0.19 0.19 94 1019.5
20260902032417 62 0.0 1.0 0.00 0.19 0.19 94 1019.6
20260902031417 62 180 4.0 6.0 0.00 0.19 0.19 94 1019.5
20260902030417 62 158 6.0 7.0 0.00 0.19 0.19 95 1019.4
20260902025417 62 158 7.0 7.0 0.00 0.19 0.19 95 1019.3
20260902024417 62 158 5.0 7.0 0.00 0.19 0.19 95 1019.3
20260902023417 63 158 3.0 9.0 0.00 0.19 0.19 95 1019.2
20260902022417 63 158 7.0 8.0 0.00 0.19 0.19 95 1019.2
20260902021437 62 158 7.0 8.0 0.00 0.19 0.19 95 1019.2
20260902020417 62 158 6.0 9.0 0.00 0.19 0.19 95 1019.2
20260902015437 62 158 6.0 7.0 0.00 0.19 0.19 95 1019.2
20260902014417 63 135 5.0 6.0 0.00 0.19 0.19 95 1019.4
20260902013417 63 158 6.0 7.0 0.00 0.19 0.19 95 1019.3
20260902012417 63 158 6.0 7.0 0.00 0.19 0.19 95 1019.3
20260902011417 63 158 4.0 6.0 0.00 0.19 0.19 95 1019.4
20260902010417 63 135 5.0 6.0 0.00 0.19 0.19 95 1019.3
20260902005417 63 158 6.0 7.0 0.00 0.19 0.19 95 1019.2
20260902004417 62 158 8.0 9.0 0.00 0.19 0.19 95 1019.0
20260902003437 63 158 5.0 7.0 0.00 0.19 0.19 95 1019.0
20260902002417 63 180 6.0 9.0 0.00 0.19 0.19 94 1018.9
20260902001417 63 158 8.0 10.0 0.00 0.19 0.19 95 1018.7
20260902000417 63 158 8.0 9.0 0.00 0.19 0.19 94 1018.6
20260901235417 63 158 8.0 9.0 0.00 0.19 0.19 94 1018.4
20260901234417 63 158 8.0 9.0 0.00 0.19 0.19 94 1018.4
20260901233417 64 158 6.0 7.0 0.00 0.19 0.19 94 1018.4
20260901232417 64 158 6.0 7.0 0.00 0.19 0.19 93 1018.6
20260901231437 64 158 5.0 6.0 0.00 0.19 0.19 93 1018.5
20260901230437 64 158 4.0 6.0 0.00 0.19 0.19 92 1018.4
20260901225417 64 158 5.0 6.0 0.00 0.19 0.19 92 1018.4
20260901224437 64 180 2.0 4.0 0.00 0.19 0.19 92 1018.5
20260901223417 64 158 5.0 6.0 0.00 0.19 0.19 92 1018.6
20260901222417 64 158 3.0 5.0 0.00 0.19 0.19 92 1018.7
20260901221437 64 180 5.0 8.0 0.00 0.19 0.19 91 1018.5
20260901220417 65 158 4.0 6.0 0.00 0.19 0.19 91 1018.5
20260901215417 65 180 5.0 6.0 0.00 0.19 0.19 92 1018.4
20260901214417 64 158 8.0 9.0 0.00 0.19 0.19 92 1018.3
20260901213417 65 180 6.0 8.0 0.00 0.19 0.19 92 1018.2
20260901212437 65 158 4.0 7.0 0.00 0.19 0.19 92 1018.1
20260901211417 65 158 7.0 9.0 0.00 0.19 0.19 92 1018.2
20260901210417 65 158 4.0 7.0 0.00 0.19 0.19 92 1018.2
20260901205417 65 158 5.0 7.0 0.00 0.19 0.19 92 1018.0
20260901204417 65 158 7.0 9.0 0.00 0.19 0.19 92 1018.0
20260901203417 65 158 8.0 10.0 0.00 0.19 0.19 91 1017.6
20260901202437 65 158 8.0 9.0 0.00 0.19 0.19 91 1017.6
20260901201417 65 135 7.0 8.0 0.00 0.19 0.19 91 1017.8
20260901200417 65 135 7.0 9.0 0.00 0.19 0.19 91 1017.8
20260901195437 65 113 6.0 9.0 0.00 0.19 0.19 91 1017.6
20260901194417 65 135 5.0 6.0 0.00 0.19 0.19 90 1017.6
20260901193417 64 158 6.0 7.0 0.00 0.19 0.19 91 1017.7
20260901192417 64 158 5.0 8.0 0.00 0.19 0.19 90 1017.7
20260901191417 64 158 6.0 7.0 0.00 0.19 0.19 90 1017.7
20260901190417 64 158 5.0 6.0 0.00 0.19 0.19 90 1017.9
20260901185417 64 135 4.0 6.0 0.00 0.19 0.19 90 1018.0
20260901184417 64 135 3.0 5.0 0.00 0.19 0.19 89 1018.0
20260901183417 64 158 5.0 6.0 0.00 0.19 0.19 89 1018.0
20260901182417 63 135 4.0 6.0 0.00 0.19 0.19 88 1017.8
20260901181417 63 158 3.0 5.0 0.00 0.19 0.19 88 1017.9
20260901180437 63 113 3.0 5.0 0.00 0.19 0.19 88 1017.8
20260901175417 63 158 3.0 5.0 0.00 0.19 0.19 88 1017.7
20260901174417 62 158 3.0 4.0 0.00 0.19 0.19 88 1017.7
20260901173416 62 158 5.0 7.0 0.00 0.19 0.19 88 1017.5
20260901172417 62 113 4.0 5.0 0.00 0.19 0.19 88 1017.5
20260901171417 62 113 5.0 6.0 0.00 0.19 0.19 88 1017.5
20260901170417 62 113 5.0 6.0 0.00 0.19 0.19 87 1017.5
20260901165437 62 113 3.0 5.0 0.00 0.19 0.19 89 1017.5
20260901164417 62 158 6.0 7.0 0.00 0.19 0.19 89 1017.4
20260901163417 61 135 7.0 8.0 0.00 0.19 0.19 90 1017.2
20260901162417 61 135 6.0 8.0 0.00 0.19 0.19 90 1017.4
20260901161417 61 135 5.0 6.0 0.00 0.19 0.19 91 1017.6
20260901160417 61 113 4.0 5.0 0.00 0.19 0.19 91 1017.7
20260901155416 60 90 4.0 6.0 0.00 0.19 0.19 92 1017.9
20260901154417 60 113 3.0 4.0 0.00 0.19 0.19 92 1018.0
20260901153437 60 90 2.0 3.0 0.00 0.19 0.19 92 1018.0
20260901152417 60 135 1.0 4.0 0.00 0.19 0.19 92 1018.0
20260901151417 60 0.0 0.0 0.00 0.19 0.19 91 1018.2
20260901150417 60 90 2.0 3.0 0.00 0.19 0.19 93 1017.8
20260901145417 60 113 3.0 5.0 0.00 0.19 0.19 92 1017.6